Weather History for Debrecen, Hungary

Change the Weather History Date:

Wednesday, February 5, 2014

  Actual Average Record
Temperature  
Mean Temperature 27 °F -  
Max Temperature 43 °F 41 °F - ()
Min Temperature 11 °F 28 °F - ()
Degree Days  
Heating Degree Days 38    
Moisture  
Dew Point 19 °F    
Average Humidity 71    
Maximum Humidity 93    
Minimum Humidity 42    
Precipitation  
Precipitation 0.00 in 0.04 in - ()
Sea Level Pressure  
Sea Level Pressure 30.11 in    
Wind  
Wind Speed 2 mph ()    
Max Wind Speed 7 mph    
Max Gust Speed -    
Visibility 2.4 miles    
Events      
T = Trace of Precipitation, MM = Missing Value Source: Averaged Metar Reports

Daily Weather History Graph

Daily Weather History Graph

Search for Another Location

Airport:

Trip Planner

Search our weather history database for the weather conditions in past years. The results will help you decide how hot, cold, wet, or windy it might be!

Date:

Astronomy

Feb. 05, 2014 Rise Set
Actual Time 6:54 AM CET 4:40 PM CET
Civil Twilight 6:22 AM CET 5:13 PM CET
Nautical Twilight 5:45 AM CET 5:50 PM CET
Astronomical Twilight 5:09 AM CET 6:25 PM CET
Moon 9:29 AM CET (2/5) 11:48 PM CET (2/5)
Length of Visible Light 10h 51m
Length of Day
9h 46m
Waxing Crescent, 36% of the Moon is Illuminated
Feb 5
Waxing Crescent
Feb 6
First Quarter
Feb 15
Full
Feb 22
Last Quarter
Mar 1
New

Hourly Weather History & Observations

Time (CET) Temp. Windchill Dew Point Humidity Pressure Visibility Wind Dir Wind Speed Gust Speed Precip Events Conditions
12:00 AM 19 °F - 17 °F 88% 30.25 in - Calm Calm - -  
1:00 AM 15 °F - 12 °F 84% 30.23 in - Calm Calm - -  
2:00 AM 16 °F - 14 °F 88% 30.23 in - ENE 2.2 mph - -  
3:00 AM 16 °F - 13 °F 84% 30.22 in - NE 2.2 mph - -  
4:00 AM 16 °F - 14 °F 86% 30.21 in - NE 2.2 mph - -  
5:00 AM 15 °F - 12 °F 80% 30.20 in - Calm Calm - -  
5:10 AM 14.0 °F - 10.4 °F 86% 30.21 in 2.8 mi NE 1.2 mph - N/A   Mist
5:15 AM 14.0 °F - 10.4 °F 86% 30.15 in 2.8 mi NE 1.2 mph - N/A   Mist
5:45 AM 14.0 °F - 12.2 °F 93% 30.15 in 2.8 mi NE 2.3 mph - N/A   Mist
6:00 AM 14 °F - 11 °F 85% 30.19 in 3 mi NE 2.2 mph - -   Mist
6:00 AM - - - N/A% - 2.5 mi Variable 3.5 mph - N/A   Mist
6:15 AM 14.0 °F - 12.2 °F 93% 30.15 in - East 2.3 mph - N/A   Mist
6:44 AM 12.2 °F 4.3 °F 8.6 °F 85% 30.18 in 1.7 mi East 4.6 mph - N/A   Mist
6:45 AM 12.2 °F 4.3 °F 8.6 °F 85% 30.15 in 1.8 mi ESE 4.6 mph - N/A   Mist
7:00 AM 12 °F - 8 °F 78% 30.19 in 2 mi ESE 4.5 mph - -   Mist
7:15 AM 14.0 °F 8.2 °F 10.4 °F 86% 30.15 in 1.1 mi East 3.5 mph - N/A   Mist
7:45 AM 15.8 °F 10.2 °F 14.0 °F 93% 30.15 in 1.2 mi NE 3.5 mph - N/A   Partly Cloudy
8:00 AM 16 °F - 14 °F 86% 30.18 in 1 mi NE 4.5 mph - -   Mist
8:15 AM 17.6 °F 12.3 °F 15.8 °F 93% 30.15 in 1.4 mi East 3.5 mph - N/A   Partly Cloudy
8:45 AM 19.4 °F 14.3 °F 17.6 °F 93% 30.15 in 1.4 mi East 3.5 mph - N/A   Partly Cloudy
9:00 AM 20 °F - 17 °F 83% 30.18 in 1 mi East 4.5 mph - -   Mist
9:00 AM - - - N/A% - 1.9 mi East 5.8 mph - N/A   Mist
9:15 AM 24.8 °F - 21.2 °F 86% 30.15 in 1.4 mi NE 1.2 mph - N/A   Partly Cloudy
9:41 AM 26.6 °F - 21.2 °F 80% 30.15 in - ENE 1.2 mph - N/A   Partly Cloudy
9:45 AM 26.6 °F - 21.2 °F 80% 30.12 in 2.2 mi NE 1.2 mph - N/A   Partly Cloudy
10:00 AM 27 °F - 22 °F 74% 30.16 in 2 mi NE 2.2 mph - -   Mist
10:15 AM 32.0 °F - 23.0 °F 69% 30.12 in - Calm Calm - N/A   Haze
10:45 AM 33.8 °F - 21.2 °F 60% 30.12 in - Calm Calm - N/A   Haze
11:00 AM 33 °F - 21 °F 50% 30.14 in 3 mi Calm Calm - -   Haze
11:15 AM 33.8 °F - 23.0 °F 65% 30.12 in - SW 1.2 mph - N/A   Haze
11:45 AM 39.2 °F - 23.0 °F 52% 30.09 in 3.1 mi Calm Calm - N/A   Haze
12:00 PM 38 °F - 24 °F 44% 30.12 in 3 mi Calm Calm - -   Haze
12:00 PM - - - N/A% - 3.1 mi Variable 3.5 mph - N/A   Mist
12:15 PM 39.2 °F - 23.0 °F 52% 30.09 in 3.7 mi SE 1.2 mph - N/A   Partly Cloudy
12:16 PM 41.0 °F - 23.0 °F 49% 30.09 in 3.7 mi SSE 1.2 mph - N/A   Partly Cloudy
12:45 PM 39.2 °F 37.0 °F 24.8 °F 56% 30.09 in 3.7 mi West 3.5 mph - N/A   Partly Cloudy
1:00 PM 40 °F - 25 °F 42% 30.09 in 4 mi West 4.5 mph - -   Partly Cloudy
1:15 PM 35.6 °F 30.7 °F 24.8 °F 65% 30.06 in 3.7 mi WNW 5.8 mph - N/A   Scattered Clouds
1:45 PM 33.8 °F 29.6 °F 23.0 °F 65% 30.06 in 3.7 mi WNW 4.6 mph - N/A   Scattered Clouds
2:00 PM 35 °F - 23 °F 50% 30.07 in 4 mi WNW 4.5 mph - -   Partly Cloudy
2:15 PM 37.4 °F - 24.8 °F 60% 30.06 in 1.9 mi West 2.3 mph - N/A   Haze
2:18 PM 35.6 °F - 23.0 °F 60% 30.06 in 1.9 mi West 2.3 mph - N/A   Haze
2:45 PM 35.6 °F - 24.8 °F 65% 30.04 in 1.9 mi West 2.3 mph - N/A   Haze
3:00 PM 35 °F - 25 °F 55% 30.06 in 2 mi West 2.2 mph - -   Haze
3:15 PM 35.6 °F - 24.8 °F 65% 30.04 in 1.9 mi NW 1.2 mph - N/A   Haze
3:42 PM 37.4 °F - 24.8 °F 60% 30.04 in 2.5 mi Calm Calm - N/A   Haze
3:45 PM 37.4 °F - 24.8 °F 60% 30.04 in 2.5 mi Calm Calm - N/A   Haze
4:00 PM 37 °F - 24 °F 48% 30.04 in 2 mi Calm Calm - -   Haze
4:15 PM 35.6 °F - 23.0 °F 60% 30.01 in - Calm Calm - N/A   Haze
4:45 PM 33.8 °F - 24.8 °F 70% 30.01 in - East 2.3 mph - N/A   Haze
5:00 PM 33 °F - 24 °F 59% 30.04 in 2 mi East 2.2 mph - -   Haze
5:00 PM - - - N/A% - - North - - N/A   Unknown
6:00 PM 29 °F - 22 °F 67% 30.04 in - Calm Calm - -  
7:00 PM 30 °F - 21 °F 60% 30.03 in - ENE 2.2 mph - -  
8:00 PM 29 °F - 21 °F 60% 30.01 in - ENE 4.5 mph - -  
9:00 PM 28 °F - 20 °F 61% 30.01 in - ENE 2.2 mph - -  
10:00 PM 26 °F - 19 °F 64% 30.01 in - ENE 4.5 mph - -  
11:00 PM 25 °F - 20 °F 73% 30.00 in - ENE 6.7 mph - -